User: anonymous   Login
Location: Unspecified
(0.0000°N, 0.0000°E)
Time: 00:47:23
(UTC+00:00)
Language:

COSMOS 2509 - Orbit

View from above orbital plane
View from above orbital plane
View from above satellite
View from above satellite

Ground track
Ground track

The orbit data is extracted from the following two-line orbital elements,

1 40922U 15050C   18231.76100043  .00000012  00000-0  17452-4 0  9990
2 40922  82.4846  58.8085 0015743 145.6481 214.5620 12.42891816131786
Epoch (UTC): 19 August 2018 18:15:50
Eccentricity: 0.0015743
inclination: 82.4846°
perigee height: 1482 km
apogee height: 1507 km
right ascension of ascending node: 58.8085°
argument of perigee: 145.6481°
revolutions per day: 12.42891816
mean anomaly at epoch: 214.5620°
orbit number at epoch: 13178

The dashed part of the orbit path shows where the satellite is in the earth's shadow,  

DLR